Regional Weather Roundup
Issued by NWS Little Rock, AR

Home | Current Version | Previous Version | Graphics & Text | Print | Product List | Glossary On
Versions: 1 2 3 4 5 6 7 8 9 10 11 12 13 14 15 16 17 18 19 20 21 22 23 24 25 26 27 28 29 30 31 32 33 34 35 36 37 38 39 40 41 42 43 44 45 46 47 48 49 50
000
ASUS44 KLZK 181905
RWRLZK

WEATHER ROUNDUP FOR ARKANSAS
NATIONAL WEATHER SERVICE LITTLE ROCK AR
200 PM CDT THU SEP 18 2014

NOTE: "FAIR" INDICATES FEW OR NO CLOUDS BELOW 12,000 FEET WITH NO
SIGNIFICANT WEATHER AND/OR OBSTRUCTIONS TO VISIBILITY.

ARZ001-003-010-029-182000-
NORTHWEST ARKANSAS

CITY           SKY/WX    TMP DP  RH WIND       PRES   REMARKS
FAYETTEVILLE   MOSUNNY   78  64  61 NE6       29.96S
FORT SMITH     MOSUNNY   80  63  55 VRB3      29.91F
HARRISON       CLOUDY    69  65  86 SE8       30.01S
BENTONVILLE    PTSUNNY   75  64  69 E8        29.98F
ROGERS         PTSUNNY   75  64  68 E10       29.99R
SILOAM SPGS    PTSUNNY   79  64  61 NE8       29.97S
HIGHFILL       PTSUNNY   77  65  66 NE12      29.97S
SPRINGDALE     MOSUNNY   77  64  65 E9G17     29.99S
$$

ARZ004-005-016-182000-
NORTH CENTRAL ARKANSAS

CITY           SKY/WX    TMP DP  RH WIND       PRES   REMARKS
BATESVILLE     CLOUDY    73  64  73 NE9       29.98F
FLIPPIN        CLOUDY    66  61  82 E6        30.00F
MTN HOME       CLOUDY    65  64  97 E8        30.00F FOG
$$

ARZ040-041-182000-
WEST CENTRAL ARKANSAS

CITY           SKY/WX    TMP DP  RH WIND       PRES   REMARKS
MENA           MOSUNNY   86  64  48 CALM      29.93F HX  87
MOUNT IDA      MOSUNNY   84  63  49 VRB3      29.91F HX  85
$$

ARZ009-017-025-026-028-182000-
NORTHEAST ARKANSAS

CITY           SKY/WX    TMP DP  RH WIND       PRES   REMARKS
CORNING          N/A     68  63  83 NE6       30.01F
JONESBORO      CLOUDY    73  64  73 NE13      29.98F
NEWPORT        CLOUDY    74  65  73 NE10G22   29.98F
WALNUT RIDGE   CLOUDY    68  63  83 NE8       30.00S
BLYTHEVILLE    CLOUDY    73  65  75 E7        29.99F
NW BLYTHEVILLE CLOUDY    70  63  78 E9        29.99
$$

ARZ022-023-033-042-044-182000-
CENTRAL ARKANSAS

CITY           SKY/WX    TMP DP  RH WIND       PRES   REMARKS
LITTLE ROCK    CLOUDY    79  67  66 N7        29.93F
N LITTLE ROCK  CLOUDY    76  70  83 NE10      29.93F
JACKSONVILLE   CLOUDY    76  68  74 NE8       29.93F
SEARCY         PTSUNNY   78  67  68 VRB7      29.96F
HOT SPRINGS    MOSUNNY   85  68  56 VRB3      29.91F HX  88
RUSSELLVILLE   PTSUNNY   77  68  73 VRB3      29.95F
CLINTON        CLOUDY    75  68  78 E5        29.97F
$$

ARZ036-182000-
EAST ARKANSAS

CITY           SKY/WX    TMP DP  RH WIND       PRES   REMARKS
WEST MEMPHIS   MOSUNNY   80  69  69 VRB6      29.93F
$$

ARZ050-053-066-070-073-182000-
SOUTHWEST ARKANSAS

CITY           SKY/WX    TMP DP  RH WIND       PRES   REMARKS
ARKADELPHIA    FAIR      89  70  53 CALM      29.90F HX  94
CAMDEN         PTSUNNY   90  73  58 NW3       29.90F HX  98
TEXARKANA      LGT RAIN  73  73 100 E3        29.94S
EL DORADO      CLOUDY    82  72  71 SW3       29.92F HX  87
DE QUEEN       MOSUNNY   82  71  69 SE3       29.89F HX  86
$$

ARZ056-057-069-182000-
SOUTHEAST ARKANSAS

CITY           SKY/WX    TMP DP  RH WIND       PRES   REMARKS
PINE BLUFF     MOSUNNY   82  70  66 N3        29.91F HX  86
STUTTGART      PTSUNNY   81  70  69 NE12      29.93F
MONTICELLO     PTSUNNY   86  70  58 CALM      29.89F HX  90

$$




USA.gov is the U.S. government's official web portal to all federal, state and local government web resources and services.